Location: Poughquag
(41.6090°N, 73.6820°W)
Time: 02:12:51
(UTC-04:00)

Vanguard 1 Rocket - Pass Details

Date: 05 June 2020
Orbit: 653 x 4224 km, 34.3° (Epoch: 06 July)

Event Time Altitude Azimuth Distance (km) Brightness Sun altitude
Rises 19:35:17 0° 183° (S) 8,079 12.0 7.5°
Reaches altitude 10° 19:44:08 10° 167° (SSE) 7,353 11.7 6.0°
Maximum altitude 19:58:24 18° 133° (SE) 6,616 11.2 3.6°
Drops below altitude 10° 20:11:19 10° 99° (E) 6,741 11.2 1.5°
Sets 20:18:26 0° 84° (E) 7,224 11.5 0.3°
